Regional Weather Roundup
Issued by NWS

Home | Current Version | Previous Version | Text Only | Print | Product List | Glossary Off
Versions: 1 2 3 4 5 6 7 8 9 10 11 12 13 14 15 16 17 18 19 20 21 22 23 24 25 26 27 28 29 30 31 32 33 34 35 36 37 38 39 40 41 42 43 44 45 46 47 48 49 50

000
ASUS43 KFSD 011002
RWRSD

WEATHER ROUNDUP FOR SOUTH DAKOTA
NATIONAL WEATHER SERVICE SIOUX FALLS SD
500 AM CDT SUN MAY 01 2016

NOTE: "FAIR" INDICATES FEW OR NO CLOUDS BELOW 12,000 FEET WITH NO
SIGNIFICANT WEATHER AND/OR OBSTRUCTIONS TO VISIBILITY.


SDZ001>005-009-010-012>017-011100-
NORTHWEST AND NORTH CENTRAL SOUTH DAKOTA

CITY           SKY/WX    TMP DP  RH WIND       PRES   REMARKS
BUFFALO          N/A     32  25  75 W6        30.23S WCI  26
FAITH            N/A     33  25  72 NW6       30.27R WCI  28
MOBRIDGE       CLEAR     38  30  73 N9        30.23R
$$

SDZ012>016-024>037-041>051-057-063-072>074-011100-
SOUTHWEST AND SOUTH CENTRAL SOUTH DAKOTA

CITY           SKY/WX    TMP DP  RH WIND       PRES   REMARKS
RAPID CTY ARPT CLEAR     34  29  82 N12       30.26R WCI  25
PIERRE         CLOUDY    34  30  85 NE9       30.21R WCI  27
CUSTER         CLOUDY    34  23  64 N9        30.24R WCI  27
PHILIP         CLEAR     36  29  75 N12       30.23R
PINE RIDGE     PTCLDY    36  31  82 N8        30.22R
WINNER         FAIR      38  35  89 NW6       30.17R
$$

SDZ004>011-016>023-039-040-011100-
NORTHEAST SOUTH DAKOTA

CITY           SKY/WX    TMP DP  RH WIND       PRES   REMARKS
ABERDEEN       CLEAR     32  28  85 N7        30.23R WCI  26
WATERTOWN      CLEAR     35  28  75 NE12      30.17R WCI  27
BROOKINGS      CLOUDY    38  30  73 N6        30.14R
SISSETON         N/A     31  27  85 N6        30.22S WCI  25
$$

SDZ017-020-022-023-036>040-048>070-011100-
SOUTHEAST SOUTH DAKOTA

CITY           SKY/WX    TMP DP  RH WIND       PRES   REMARKS
SIOUX FALLS    LGT RAIN  42  39  89 NE14      30.11R
HURON          PTCLDY    38  31  76 N10       30.18R
MITCHELL       MOCLDY    41  37  86 N8        30.16R
YANKTON        CLOUDY    45  39  81 N14G23    30.08R
$$

ABBREVIATIONS USED IN REMARKS
   TC - TEMPERATURE IN CELSIUS
  WCI - WIND CHILL INDEX
   HX - HEAT INDEX
  VSB - VISIBILITY





USA.gov is the U.S. government's official web portal to all federal, state and local government web resources and services.